Dewpoint
48 46 44 42 42 43 44 44 44 44 44 45 46 46 48 50 48 43 38 38 33 30 30 31 31 23 24 23 21 23 23 24 24 21 18 18 18 21 18 19 19 18 16 17 19 17 11 31 30 26 28 33 33 34
47 45 43 42 42 43 43 44 44 45 44 45 46 46 47 49 46 41 36 36 36 32 30 31 30 31 31 29 26 25 18 24 25 21 18 18 20 13 16 14 21 20 21 20 21 20 23 34 31 33 34 35 34 35
45 43 42 43 43 43 43 44 44 44 44 44 45 45 46 48 51 41 36 37 35 31 29 29 28 30 31 31 32 24 26 26 27 24 21 21 18 20 15 16 16 20 26 27 26 25 28 28 34 32 28 28 30 33
44 42 43 43 44 44 44 44 44 44 44 44 45 44 46 48 52 42 35 38 34 31 27 27 30 30 32 32 31 29 28 29 27 25 20 20 20 23 18 17 19 21 25 24 23 23 24 30 27 27 29 31 31 30
43 43 43 44 45 45 44 44 45 45 44 44 45 46 47 49 48 42 41 39 38 32 27 28 29 30 31 31 30 29 28 26 25 22 21 20 24 22 21 20 19 22 22 21 18 21 20 23 26 31 31 30 30 30
44 45 45 46 46 46 45 45 46 46 46 46 47 47 46 49 44 39 34 37 36 34 30 25 29 29 29 30 30 30 29 27 26 24 23 24 25 21 18 17 19 22 23 21 20 24 27 29 30 31 29 30 31 31
45 45 45 45 45 45 45 45 46 46 46 46 47 47 47 49 43 36 33 36 37 35 30 25 26 28 28 29 29 28 28 27 26 25 23 23 23 20 17 18 19 22 23 28 30 30 27 28 27 29 30 30 32 32
45 45 45 45 45 45 46 45 46 46 46 46 47 47 46 48 42 38 37 40 36 31 30 23 25 26 29 26 25 29 25 25 26 26 25 23 25 23 20 21 21 23 28 29 30 32 31 30 28 30 31 34 36 35
45 45 45 45 46 46 46 45 46 46 46 46 45 44 46 42 38 39 40 37 36 31 24 23 22 22 29 28 28 27 26 19 27 22 24 24 22 20 21 21 22 25 28 28 30 30 32 29 28 30 32 36 36 36
45 45 46 46 46 46 46 46 46 46 46 46 45 39 34 39 43 42 37 32 32 31 27 23 26 24 27 26 25 23 26 21 15 22 26 23 21 23 23 23 23 24 28 31 30 29 29 28 29 31 35 36 36 36
46 46 46 46 46 46 46 46 46 45 44 42 34 33 39 43 38 35 31 30 29 25 25 25 25 25 28 22 22 24 21 20 7 16 17 12 16 20 23 23 25 28 30 31 31 33 34 34 32 31 35 36 36 35
46 46 47 47 46 46 46 45 45 43 41 38 38 40 40 36 32 30 28 25 24 23 24 23 24 26 27 28 24 25 16 16 10 21 20 16 19 18 22 24 27 28 29 31 33 32 35 36 35 35 35 35 35 35
46 46 46 46 46 46 45 45 44 44 42 40 37 33 34 31 25 23 19 17 16 24 25 26 26 28 27 26 25 21 14 16 23 21 18 17 19 22 21 27 27 29 31 32 33 33 35 36 36 36 35 35 35 33
45 45 45 45 45 45 44 44 44 43 40 35 31 27 27 23 24 21 21 21 24 27 27 27 27 25 26 22 23 14 20 23 19 15 13 17 21 24 25 28 31 29 32 33 32 33 35 36 35 33 31 28 25 23
44 44 44 44 44 44 44 45 44 42 37 30 29 24 25 24 25 20 21 27 29 29 28 27 25 24 20 20 22 23 20 18 18 15 19 19 22 26 26 30 29 30 30 33 34 34 34 33 31 27 22 21 18 16
43 42 41 44 43 44 44 44 41 38 32 27 24 24 27 26 25 22 26 28 30 28 27 26 21 17 16 20 20 16 13 12 16 19 21 20 24 27 27 32 30 30 31 31 31 28 26 21 20 23 26 26 19 16
40 38 44 45 45 44 42 39 37 32 30 26 26 29 25 25 25 26 28 29 28 26 22 21 14 14 20 14 14 19 15 18 19 19 22 24 26 27 29 31 29 29 30 32 32 30 29 28 26 28 29 30 30 29
38 42 45 45 42 39 35 34 32 30 25 25 27 28 31 30 28 29 29 29 27 25 23 18 22 17 16 14 16 20 20 21 21 27 24 25 26 26 29 30 31 31 27 31 31 31 30 30 29 29 27 29 26 25
41 44 43 43 40 35 32 30 31 23 24 28 30 31 32 31 31 30 29 28 27 27 23 18 15 16 19 20 18 15 25 29 28 26 26 25 25 26 27 28 31 31 31 30 29 28 28 28 28 27 25 25 23 22
44 43 43 41 38 32 28 28 32 25 24 27 29 29 30 29 29 28 28 27 26 22 19 16 17 19 21 23 22 23 29 28 29 27 26 25 25 21 24 25 30 30 29 28 27 28 26 24 22 22 22 23 22 22
41 41 39 36 32 31 28 26 25 27 27 25 27 29 28 31 30 29 28 29 27 19 20 22 21 23 23 24 27 28 27 28 27 28 27 25 26 22 19 17 25 27 27 23 21 20 24 20 19 17 15 21 21 21
39 40 35 35 30 28 26 26 23 27 25 25 26 28 27 27 28 28 27 27 23 26 24 24 24 23 24 25 26 22 26 26 26 28 30 30 26 26 26 23 23 24 20 18 17 17 15 16 16 15 15 15 18 16
39 36 33 32 27 25 22 28 22 26 24 22 25 24 22 22 23 26 28 27 26 26 25 23 20 18 22 19 23 24 23 23 24 25 25 23 22 18 17 22 24 20 14 16 15 15 12 19 18 15 13 13 12 12
35 30 28 26 25 19 26 22 25 23 24 23 21 17 19 21 24 24 21 24 26 22 22 21 22 21 20 20 19 17 17 19 18 14 13 20 18 19 21 21 20 17 19 17 17 13 11 12 16 11 9 8 7 8
31 25 26 21 22 21 18 19 20 21 18 20 18 16 18 21 21 18 20 24 21 21 21 20 22 23 24 19 15 15 13 16 19 17 11 10 11 10 13 15 16 14 13 10 13 12 9 7 7 7 7 6 6 6
20 17 20 21 20 19 19 17 17 18 19 17 16 15 17 19 18 18 20 22 18 18 20 22 22 20 19 18 17 14 15 10 15 16 10 10 12 14 9 11 9 10 10 10 9 9 8 6 5 3 5 7 14 6
18 16 19 21 21 21 20 20 22 22 20 17 15 15 18 19 19 19 18 17 19 17 18 22 22 23 19 14 13 10 8 5 9 12 9 7 4 3 7 8 8 10 8 6 7 7 6 5 4 3 2 2 1 3
18 18 18 19 19 20 19 19 20 22 21 20 19 17 20 22 18 14 13 12 12 12 13 12 14 18 16 14 12 10 8 7 7 8 9 7 2 -2 -1 4 8 16 3 2 2 1 3 3 3 4 4 5 5 2
18 20 23 19 19 19 18 20 20 19 19 21 22 20 19 15 11 10 12 12 12 14 15 13 9 11 9 7 6 9 10 11 10 5 4 4 1 3 -6 -6 -5 -6 -6 -2 14 12 9 11 13 13 4 1 -0 -3
20 23 20 19 19 16 12 13 15 15 16 17 17 15 14 13 11 10 11 11 14 15 15 15 12 14 12 12 9 6 -0 -2 -1 8 7 4 5 -0 -7 -5 -4 -6 -8 -4 -2 -3 13 4 4 -3 -4 -4 -4 -3
22 20 15 14 11 11 11 13 15 16 15 14 13 15 13 10 12 10 10 11 12 12 12 11 10 12 13 12 11 10 7 2 -7 -6 1 3 1 -1 -4 -6 -6 -6 -5 -4 -4 -3 -4 -4 -7 -9 -8 -9 -7 -2
17 16 15 12 11 12 13 15 15 14 13 14 12 12 11 12 12 12 9 10 11 12 14 13 12 10 6 4 5 5 14 6 1 2 5 3 -0 -2 -3 -4 -6 -3 -2 -2 -4 -5 -7 -9 -9 -10 -9 -11 -8 -6
14 14 13 13 12 12 13 15 12 12 13 12 9 7 8 10 12 13 6 7 11 14 14 11 7 7 6 5 6 10 8 4 8 15 17 17 18 13 4 1 1 1 -0 -1 -5 -7 -9 -11 -12 -13 -12 -11 -7 -5
Lifted_Index
11 12 12 13 14 13 13 12 11 11 11 12 12 11 9 8 7 7 7 8 9 9 10 10 10 11 11 11 11 11 11 11 11 10 10 9 9 9 9 9 9 9 8 8 8 7 7 8 7 5 3 2 2 2
12 12 13 13 14 14 13 12 11 11 12 12 12 11 9 8 7 7 8 9 9 9 10 10 11 12 12 12 12 11 12 12 12 11 11 10 9 9 8 8 9 9 9 9 9 8 8 8 8 6 5 4 3 3
13 13 14 13 14 14 13 13 12 12 13 13 12 11 9 7 7 8 9 9 10 9 9 10 11 13 14 14 13 13 12 13 13 13 12 11 10 10 9 9 9 10 10 10 9 9 9 9 9 8 8 7 6 5
14 14 14 13 13 13 13 13 12 12 12 13 12 11 9 7 7 8 9 10 10 9 8 9 11 13 14 15 14 14 13 14 14 13 12 11 11 11 10 10 10 10 10 10 9 9 9 9 10 10 10 10 9 8
14 14 13 13 13 13 13 13 12 12 12 12 12 10 8 7 7 8 9 10 11 9 7 8 11 13 14 15 15 14 14 14 13 13 12 12 12 12 11 10 10 11 10 10 9 9 10 10 10 11 11 12 12 11
14 13 13 13 13 13 12 12 12 11 12 12 12 10 8 7 8 8 9 11 11 10 8 8 10 12 14 15 14 14 14 14 13 13 12 13 13 13 11 10 10 11 11 10 10 10 10 10 10 11 12 12 13 13
13 13 12 12 12 12 12 11 11 11 11 11 11 10 9 8 9 9 10 11 12 10 9 8 9 12 14 14 13 14 14 14 13 13 13 13 13 12 10 9 11 12 11 11 11 10 10 10 10 12 12 12 12 12
13 13 12 12 12 11 11 11 11 11 11 11 11 11 10 9 9 10 11 12 12 10 9 9 9 11 13 13 12 13 13 13 13 13 13 13 12 11 10 10 11 12 11 11 11 10 10 10 10 11 12 12 11 11
13 13 12 11 11 10 10 10 10 9 10 10 11 10 9 9 10 11 11 11 11 11 9 9 9 11 12 12 12 12 12 12 12 12 12 12 10 10 10 11 11 12 12 11 11 10 10 9 10 10 11 11 10 10
12 12 11 10 10 9 9 9 8 8 9 10 10 9 9 10 10 10 10 10 10 10 10 10 10 11 11 12 12 12 11 10 10 11 11 10 8 9 11 12 12 12 12 12 12 11 10 9 9 9 10 10 9 9
11 11 10 10 9 9 8 7 7 8 8 9 10 10 10 10 10 9 8 9 9 10 10 10 10 11 12 12 12 12 11 10 9 10 10 8 8 9 11 12 12 12 13 13 12 12 11 10 9 9 9 9 9 8
10 10 9 9 8 7 6 6 6 7 8 9 10 10 10 9 8 7 8 8 8 9 9 10 10 11 12 12 12 12 11 10 9 9 8 7 8 10 11 12 12 13 13 13 13 12 11 11 10 10 9 9 9 8
9 9 8 7 6 5 4 5 6 6 7 8 9 9 8 7 7 7 7 8 8 8 8 8 9 10 12 12 12 12 11 11 10 8 7 7 9 11 12 12 13 13 13 13 13 13 12 11 10 10 9 9 9 9
9 8 7 5 4 4 4 5 5 5 5 6 7 6 6 6 6 7 7 8 8 8 8 8 9 10 11 12 12 12 11 10 8 6 6 8 10 11 12 12 13 13 13 14 14 13 12 11 10 9 9 9 9 9
8 7 6 4 4 4 4 5 5 4 4 5 6 5 5 6 7 8 8 8 8 8 8 9 10 11 11 11 11 10 9 8 7 6 8 10 11 12 12 12 13 13 14 14 14 14 12 11 10 9 9 9 9 9
7 6 5 4 4 4 4 4 4 3 3 4 5 5 6 6 7 7 8 8 9 9 10 10 11 11 11 11 10 8 7 6 7 9 10 11 12 12 12 13 13 14 14 14 14 13 12 11 10 9 9 9 9 9
6 6 5 4 4 4 4 4 3 2 2 4 5 6 6 6 7 7 8 9 10 10 10 10 10 10 9 8 7 7 7 8 10 11 12 12 12 12 13 13 13 14 15 14 14 14 13 12 11 10 9 9 9 9
6 6 5 5 4 4 4 3 2 2 2 4 5 6 7 7 8 9 10 10 11 11 10 10 9 8 7 7 7 8 9 10 12 12 12 12 12 12 13 13 14 14 15 15 14 14 14 13 12 11 10 10 10 10
6 5 5 5 4 4 3 3 2 2 3 4 5 6 7 8 9 10 11 11 11 12 11 10 9 8 8 8 9 10 11 12 12 13 12 12 12 12 13 13 14 14 14 15 14 14 14 13 12 12 11 11 11 11
5 5 5 5 4 3 2 2 3 4 4 5 6 6 7 7 9 10 11 11 12 12 12 11 10 10 10 11 12 12 13 13 13 13 12 12 12 12 13 14 14 14 14 14 14 14 14 13 13 13 12 12 12 12
4 5 5 4 3 3 3 3 4 5 5 6 6 6 6 7 8 9 10 11 11 12 12 12 12 12 13 13 14 14 13 13 13 13 12 12 12 12 13 14 14 14 14 14 14 14 13 13 13 13 13 12 12 12
4 5 4 4 3 3 3 4 5 6 6 6 6 6 6 6 8 9 9 9 10 12 13 13 13 14 14 14 14 14 14 13 13 13 12 12 13 13 14 14 14 14 14 14 14 13 13 13 13 13 13 12 12 12
5 4 4 3 3 3 4 5 6 6 6 6 6 6 5 6 8 8 8 8 9 12 13 14 14 14 14 14 14 14 14 14 13 13 13 13 13 14 14 14 14 14 14 14 14 13 12 12 13 13 13 12 12 11
4 4 3 3 3 4 5 6 6 6 6 6 5 5 5 6 7 7 6 7 9 11 12 13 14 14 14 14 14 15 15 14 14 14 14 14 14 14 14 14 14 14 14 14 13 13 12 12 12 12 12 12 11 11
3 3 3 3 4 5 5 6 6 6 6 6 5 5 6 6 6 5 5 6 8 9 11 12 13 13 14 14 14 14 15 15 14 14 14 14 14 14 14 14 15 15 15 14 13 13 12 12 12 12 12 12 11 11
4 4 4 4 5 6 6 6 6 6 6 6 6 6 6 6 5 5 6 7 8 9 10 12 12 13 13 13 13 14 15 15 15 14 14 15 15 15 15 15 15 15 15 15 14 14 13 13 12 12 12 12 12 11
5 5 5 6 6 7 7 7 7 7 7 6 6 6 6 5 6 6 8 9 9 10 12 13 13 13 13 13 14 14 15 15 15 15 15 16 16 16 16 16 15 16 16 16 15 14 14 14 13 13 13 12 12 12
6 6 6 6 7 7 7 7 7 7 7 7 7 6 6 6 7 9 10 12 12 13 13 14 14 14 14 14 15 15 15 16 16 16 16 16 16 17 17 16 16 16 15 15 15 15 14 14 14 13 13 12 13 13
6 6 7 6 7 7 7 7 7 7 7 7 7 7 7 8 10 11 12 13 14 13 13 13 13 14 14 15 15 16 16 16 16 15 15 14 15 16 16 16 16 15 15 15 15 15 15 15 14 14 13 13 13 13
6 6 6 6 6 6 6 7 7 7 7 7 7 7 7 9 11 13 14 14 13 13 13 13 14 14 14 15 15 16 16 16 16 15 14 14 14 15 15 15 15 15 15 15 15 15 15 14 14 13 13 13 13 13
6 6 5 5 6 6 6 7 7 7 7 7 7 7 8 9 11 13 14 14 13 13 13 13 14 14 14 15 15 15 16 16 16 16 15 15 15 15 15 15 15 15 15 15 15 15 14 13 12 12 12 12 12 12
6 6 5 5 5 6 6 7 7 7 7 7 7 8 8 9 10 12 13 14 13 13 13 14 14 14 15 15 16 16 16 16 16 16 15 15 15 15 15 15 15 15 15 15 14 14 13 12 12 12 12 12 12 12
6 6 6 6 6 6 7 7 6 6 7 7 7 8 8 8 9 11 13 14 14 13 13 14 14 14 15 16 16 16 16 16 16 15 15 15 15 15 15 15 15 15 15 15 14 13 12 12 12 12 12 12 12 12